Grand Princess — ZCBU5 — position and weather

sailwx.info

Track history (hours):
 
Tides and Currents Weather Stations Pressure Air Temp Water Temp Dewpoint Dewpoint Depression Visibility Wind Speed Wind Dir Waves Ship Positions

Grand Princess

Operator: Princess Cruises

Last reported at 2017-May-21 04:00 UTC. Time now 2017-May-25 02:59 UTC.
Position N 53°18' W 133°12'.

Length 289.5 m; beam 36 m; draft 8.5 m.

Type: Ship. MMSI: 310327000.

Wind from 140 at 33 knots

Barometer 1017.8 mb
Air temperature 10.5 ° C
Visibility: greater than 2.2 NM
Dewpoint 9.5 ° C
Water temperature 10.0 ° C

Date/timePositionNaut miles runAvg speedWind from/ knotsBaromVisibWave heightAir tempDewpointWater temp
2017-May-21 04:00N 53°18' W 133°12'54921.2 140 / 331017.8 2.2 10.5 9.510.0
2017-May-20 02:03N 44°54' W 127°37'220.7
2017-May-20 01:59N 44°53' W 127°36'1021.2
2017-May-20 01:30N 44°44' W 127°31'33121.0
2017-May-19 09:42N 39°41' W 124°28'419.9
2017-May-19 09:30N 39°37' W 124°26'1019.7
2017-May-19 09:00N 39°28' W 124°21'1019.3
2017-May-19 08:30N 39°20' W 124°16'1020.9
2017-May-19 08:00N 39°10' W 124°11'1020.5
2017-May-19 07:30N 39°01' W 124°05'1020.3
2017-May-19 07:01N 38°52' W 123°58'1020.2
2017-May-19 06:30N 38°44' W 123°51'1020.2
2017-May-19 06:00N 38°36' W 123°43'1019.5
2017-May-19 05:31N 38°28' W 123°36'1019.4
2017-May-19 05:00N 38°20' W 123°29'816.7
2017-May-19 04:31N 38°13' W 123°23'611.3
2017-May-19 04:00N 38°08' W 123°19'510.6
2017-May-19 03:30N 38°04' W 123°15'510.7
2017-May-19 03:01N 38°00' W 123°10'510.6
2017-May-19 02:31N 37°57' W 123°05'510.6
2017-May-19 02:00N 37°54' W 122°59'510.8
2017-May-19 01:30N 37°51' W 122°53'510.9
2017-May-19 01:00N 37°49' W 122°47'510.8
2017-May-19 00:30N 37°46' W 122°41'611.4
2017-May-19 00:01N 37°47' W 122°34'713.5
2017-May-18 23:30N 37°49' W 122°26'1 2.6
2017-May-18 22:58N 37°48' W 122°24'0 0.0
2017-May-18 22:28N 37°48' W 122°24'0 0.0
2017-May-18 22:00N 37°48' W 122°24'0 0.0
2017-May-18 21:30N 37°48' W 122°24'0 0.0
2017-May-18 21:00N 37°48' W 122°24'0 0.0
2017-May-18 18:54N 37°48' W 122°24'0 0.0
2017-May-18 18:30N 37°48' W 122°24'0 0.0
2017-May-18 18:00N 37°48' W 122°24'0 0.0
2017-May-18 17:29N 37°48' W 122°24'0 0.0
2017-May-18 16:59N 37°48' W 122°24'0 0.0
2017-May-18 16:29N 37°48' W 122°24'0 0.0
2017-May-18 15:59N 37°48' W 122°24'0 0.0
2017-May-18 15:28N 37°48' W 122°24'0 0.0
2017-May-18 14:58N 37°48' W 122°24'0 0.0
2017-May-18 14:28N 37°48' W 122°24'0 0.2
2017-May-18 13:30N 37°48' W 122°24'2 3.5
2017-May-18 13:00N 37°49' W 122°26'611.4
2017-May-18 12:30N 37°47' W 122°33'714.9
2017-May-18 12:00N 37°46' W 122°42'5 9.5
2017-May-18 11:30N 37°47' W 122°48'510.0
2017-May-18 11:00N 37°50' W 122°54'5 9.7
2017-May-18 10:30N 37°52' W 122°59'5 9.9
2017-May-18 10:00N 37°55' W 123°04'5 9.9
2017-May-18 09:30N 37°57' W 123°10'5 9.8
2017-May-18 09:00N 38°00' W 123°14'5 9.8
2017-May-18 08:30N 38°04' W 123°18'510.0
2017-May-18 08:00N 38°08' W 123°22'715.1
2017-May-18 07:31N 38°14' W 123°28'918.1
2017-May-18 07:00N 38°22' W 123°34'918.0
2017-May-18 06:30N 38°29' W 123°41'917.5
2017-May-18 06:01N 38°36' W 123°47'917.3
2017-May-18 05:31N 38°43' W 123°53'40221.2
2017-May-17 10:33N 45°22' W 125°08'121.1
2017-May-17 10:30N 45°23' W 125°08'1020.9
2017-May-17 10:01N 45°33' W 125°09'1020.9
2017-May-17 09:31N 45°44' W 125°09'1020.8
2017-May-17 09:00N 45°54' W 125°10'1020.8
2017-May-17 08:31N 46°05' W 125°11'1020.7
2017-May-17 08:00N 46°15' W 125°12'1020.7
2017-May-17 07:30N 46°25' W 125°13'1021.1
2017-May-17 07:01N 46°36' W 125°13'1020.8
2017-May-17 06:31N 46°46' W 125°14'1120.9
2017-May-17 06:00N 46°57' W 125°15'1121.0
2017-May-17 05:30N 47°07' W 125°15'5320.3
2017-May-17 02:53N 48°00' W 125°19'718.9
2017-May-17 02:30N 48°07' W 125°15'918.9
2017-May-17 02:00N 48°16' W 125°12'918.6
2017-May-17 01:30N 48°25' W 125°07'815.3
2017-May-17 01:00N 48°31' W 125°00'918.1
2017-May-17 00:31N 48°31' W 124°47'918.4
2017-May-17 00:01N 48°28' W 124°34'918.7
2017-May-16 23:31N 48°24' W 124°21'1019.6
2017-May-16 23:01N 48°21' W 124°07'1019.9
2017-May-16 22:30N 48°17' W 123°53'1020.9
2017-May-16 22:01N 48°15' W 123°38'917.3
2017-May-16 21:30N 48°20' W 123°27'510.7
2017-May-16 21:01N 48°25' W 123°24'0 0.2
2017-May-16 20:29N 48°25' W 123°24'0 0.0
2017-May-16 19:58N 48°25' W 123°24'0 0.0
2017-May-16 19:28N 48°25' W 123°24'0 0.0
2017-May-16 18:58N 48°25' W 123°24'0 0.0
2017-May-16 18:28N 48°25' W 123°24'0 0.0
2017-May-16 17:58N 48°25' W 123°24'0 0.0
2017-May-16 17:30N 48°25' W 123°24'0 0.0
2017-May-16 16:57N 48°25' W 123°24'0 0.0
2017-May-16 16:30N 48°25' W 123°24'0 0.0
2017-May-16 16:00N 48°25' W 123°24'0 0.0
2017-May-16 15:30N 48°25' W 123°24'0 0.0
2017-May-16 14:59N 48°25' W 123°24'0 0.0
2017-May-16 14:29N 48°25' W 123°24'2 2.1
2017-May-16 13:30N 48°23' W 123°24'612.2
2017-May-16 13:00N 48°17' W 123°26'611.2
2017-May-16 12:31N 48°14' W 123°33'713.4
2017-May-16 12:00N 48°14' W 123°43'816.3
2017-May-16 11:30N 48°14' W 123°55'918.2
2017-May-16 11:00N 48°18' W 124°08'917.8
2017-May-16 10:30N 48°21' W 124°20'917.9
2017-May-16 10:01N 48°25' W 124°32'918.5
2017-May-16 09:30N 48°28' W 124°45'917.9
2017-May-16 09:00N 48°29' W 124°59'816.9
2017-May-16 08:30N 48°28' W 125°11'816.8
2017-May-16 08:01N 48°30' W 125°23'917.7
2017-May-16 07:31N 48°36' W 125°34'917.5
2017-May-16 07:00N 48°41' W 125°45'917.7
2017-May-16 06:30N 48°46' W 125°55'917.8
2017-May-16 06:01N 48°52' W 126°06'917.0
2017-May-16 05:31N 48°57' W 126°16'917.3
2017-May-16 05:00N 49°02' W 126°27'917.9
2017-May-16 04:30N 49°07' W 126°38'917.6
2017-May-16 04:01N 49°13' W 126°49'817.0
2017-May-16 03:30N 49°18' W 126°59'1016.9
2017-May-16 02:56N 49°24' W 127°10'  
Track history (hours):
 
Tides and Currents Weather Stations Pressure Air Temp Water Temp Dewpoint Dewpoint Depression Visibility Wind Speed Wind Dir Waves Ship Positions

Grand Princess

Operator: Princess Cruises

Last reported at 2017-May-21 04:00 UTC. Time now 2017-May-25 02:59 UTC.
Position N 53°18' W 133°12'.

Length 289.5 m; beam 36 m; draft 8.5 m.

Type: Ship. MMSI: 310327000.

Wind from 140 at 33 knots

Barometer 1017.8 mb
Air temperature 10.5 ° C
Visibility: greater than 2.2 NM
Dewpoint 9.5 ° C
Water temperature 10.0 ° C

Date/timePositionNaut miles runAvg speedWind from/ knotsBaromVisibWave heightAir tempDewpointWater temp
2017-May-21 04:00N 53°18' W 133°12'54921.2 140 / 331017.8 2.2 10.5 9.510.0
2017-May-20 02:03N 44°54' W 127°37'220.7
2017-May-20 01:59N 44°53' W 127°36'1021.2
2017-May-20 01:30N 44°44' W 127°31'33121.0
2017-May-19 09:42N 39°41' W 124°28'419.9
2017-May-19 09:30N 39°37' W 124°26'1019.7
2017-May-19 09:00N 39°28' W 124°21'1019.3
2017-May-19 08:30N 39°20' W 124°16'1020.9
2017-May-19 08:00N 39°10' W 124°11'1020.5
2017-May-19 07:30N 39°01' W 124°05'1020.3
2017-May-19 07:01N 38°52' W 123°58'1020.2
2017-May-19 06:30N 38°44' W 123°51'1020.2
2017-May-19 06:00N 38°36' W 123°43'1019.5
2017-May-19 05:31N 38°28' W 123°36'1019.4
2017-May-19 05:00N 38°20' W 123°29'816.7
2017-May-19 04:31N 38°13' W 123°23'611.3
2017-May-19 04:00N 38°08' W 123°19'510.6
2017-May-19 03:30N 38°04' W 123°15'510.7
2017-May-19 03:01N 38°00' W 123°10'510.6
2017-May-19 02:31N 37°57' W 123°05'510.6
2017-May-19 02:00N 37°54' W 122°59'510.8
2017-May-19 01:30N 37°51' W 122°53'510.9
2017-May-19 01:00N 37°49' W 122°47'510.8
2017-May-19 00:30N 37°46' W 122°41'611.4
2017-May-19 00:01N 37°47' W 122°34'713.5
2017-May-18 23:30N 37°49' W 122°26'1 2.6
2017-May-18 22:58N 37°48' W 122°24'0 0.0
2017-May-18 22:28N 37°48' W 122°24'0 0.0
2017-May-18 22:00N 37°48' W 122°24'0 0.0
2017-May-18 21:30N 37°48' W 122°24'0 0.0
2017-May-18 21:00N 37°48' W 122°24'0 0.0
2017-May-18 18:54N 37°48' W 122°24'0 0.0
2017-May-18 18:30N 37°48' W 122°24'0 0.0
2017-May-18 18:00N 37°48' W 122°24'0 0.0
2017-May-18 17:29N 37°48' W 122°24'0 0.0
2017-May-18 16:59N 37°48' W 122°24'0 0.0
2017-May-18 16:29N 37°48' W 122°24'0 0.0
2017-May-18 15:59N 37°48' W 122°24'0 0.0
2017-May-18 15:28N 37°48' W 122°24'0 0.0
2017-May-18 14:58N 37°48' W 122°24'0 0.0
2017-May-18 14:28N 37°48' W 122°24'0 0.2
2017-May-18 13:30N 37°48' W 122°24'2 3.5
2017-May-18 13:00N 37°49' W 122°26'611.4
2017-May-18 12:30N 37°47' W 122°33'714.9
2017-May-18 12:00N 37°46' W 122°42'5 9.5
2017-May-18 11:30N 37°47' W 122°48'510.0
2017-May-18 11:00N 37°50' W 122°54'5 9.7
2017-May-18 10:30N 37°52' W 122°59'5 9.9
2017-May-18 10:00N 37°55' W 123°04'5 9.9
2017-May-18 09:30N 37°57' W 123°10'5 9.8
2017-May-18 09:00N 38°00' W 123°14'5 9.8
2017-May-18 08:30N 38°04' W 123°18'510.0
2017-May-18 08:00N 38°08' W 123°22'715.1
2017-May-18 07:31N 38°14' W 123°28'918.1
2017-May-18 07:00N 38°22' W 123°34'918.0
2017-May-18 06:30N 38°29' W 123°41'917.5
2017-May-18 06:01N 38°36' W 123°47'917.3
2017-May-18 05:31N 38°43' W 123°53'40221.2
2017-May-17 10:33N 45°22' W 125°08'121.1
2017-May-17 10:30N 45°23' W 125°08'1020.9
2017-May-17 10:01N 45°33' W 125°09'1020.9
2017-May-17 09:31N 45°44' W 125°09'1020.8
2017-May-17 09:00N 45°54' W 125°10'1020.8
2017-May-17 08:31N 46°05' W 125°11'1020.7
2017-May-17 08:00N 46°15' W 125°12'1020.7
2017-May-17 07:30N 46°25' W 125°13'1021.1
2017-May-17 07:01N 46°36' W 125°13'1020.8
2017-May-17 06:31N 46°46' W 125°14'1120.9
2017-May-17 06:00N 46°57' W 125°15'1121.0
2017-May-17 05:30N 47°07' W 125°15'5320.3
2017-May-17 02:53N 48°00' W 125°19'718.9
2017-May-17 02:30N 48°07' W 125°15'918.9
2017-May-17 02:00N 48°16' W 125°12'918.6
2017-May-17 01:30N 48°25' W 125°07'815.3
2017-May-17 01:00N 48°31' W 125°00'918.1
2017-May-17 00:31N 48°31' W 124°47'918.4
2017-May-17 00:01N 48°28' W 124°34'918.7
2017-May-16 23:31N 48°24' W 124°21'1019.6
2017-May-16 23:01N 48°21' W 124°07'1019.9
2017-May-16 22:30N 48°17' W 123°53'1020.9
2017-May-16 22:01N 48°15' W 123°38'917.3
2017-May-16 21:30N 48°20' W 123°27'510.7
2017-May-16 21:01N 48°25' W 123°24'0 0.2
2017-May-16 20:29N 48°25' W 123°24'0 0.0
2017-May-16 19:58N 48°25' W 123°24'0 0.0
2017-May-16 19:28N 48°25' W 123°24'0 0.0
2017-May-16 18:58N 48°25' W 123°24'0 0.0
2017-May-16 18:28N 48°25' W 123°24'0 0.0
2017-May-16 17:58N 48°25' W 123°24'0 0.0
2017-May-16 17:30N 48°25' W 123°24'0 0.0
2017-May-16 16:57N 48°25' W 123°24'0 0.0
2017-May-16 16:30N 48°25' W 123°24'0 0.0
2017-May-16 16:00N 48°25' W 123°24'0 0.0
2017-May-16 15:30N 48°25' W 123°24'0 0.0
2017-May-16 14:59N 48°25' W 123°24'0 0.0
2017-May-16 14:29N 48°25' W 123°24'2 2.1
2017-May-16 13:30N 48°23' W 123°24'612.2
2017-May-16 13:00N 48°17' W 123°26'611.2
2017-May-16 12:31N 48°14' W 123°33'713.4
2017-May-16 12:00N 48°14' W 123°43'816.3
2017-May-16 11:30N 48°14' W 123°55'918.2
2017-May-16 11:00N 48°18' W 124°08'917.8
2017-May-16 10:30N 48°21' W 124°20'917.9
2017-May-16 10:01N 48°25' W 124°32'918.5
2017-May-16 09:30N 48°28' W 124°45'917.9
2017-May-16 09:00N 48°29' W 124°59'816.9
2017-May-16 08:30N 48°28' W 125°11'816.8
2017-May-16 08:01N 48°30' W 125°23'917.7
2017-May-16 07:31N 48°36' W 125°34'917.5
2017-May-16 07:00N 48°41' W 125°45'917.7
2017-May-16 06:30N 48°46' W 125°55'917.8
2017-May-16 06:01N 48°52' W 126°06'917.0
2017-May-16 05:31N 48°57' W 126°16'917.3
2017-May-16 05:00N 49°02' W 126°27'917.9
2017-May-16 04:30N 49°07' W 126°38'917.6
2017-May-16 04:01N 49°13' W 126°49'817.0
2017-May-16 03:30N 49°18' W 126°59'1016.9
2017-May-16 02:56N 49°24' W 127°10'  

Dump ship's entire track history